Погода в Ягурьяхе

Россия / Ханты-Мансийский автономный округ - Югра     61°14′49″N   67°39′48″E
темп.,
°C
ветер,
м/с
пор.,
м/с
влажн.,
%
обл.,
%
осадки,
мм/ч
давл.,
гПа
погр.,
м
14 апреля, ср
ср1423:00+4зюз71279100 0.0 1024133
02:00+4зюз71287100 0.0 1021163
05:00+4зюз71188100 0.0 1020168
08:00+3з5896100 1.6 1021107
11:00+4з4799100 1.6 102291
14:00+7зюз4597100 0.0 102381
17:00+7юз459363 0.0 102247
20:00+6ююз5695100 0.0 102055
15 апреля, чт
чт1523:00+5юз598983 0.0 101875
02:00+5зюз699048 0.0 1017105
05:00+5юз7128910 0.0 1015160
08:00+8зюз814815 0.0 1013270
11:00+12зюз916635 0.0 1011629
14:00+15з9155914 0.0 10111334
17:00+10сз71176100 0.1 1011390
20:00+4с6992100 0.5 1013729
16 апреля, пт
пт1623:00+4сз71173100 1.7 1014608
02:00+2ссз4881100 0.1 1015452
05:00−2ссз9126583 0.1 1019718
08:00−3с91058100 0.0 10231251
11:00−2с794099 0.0 10261648
14:00−1с56345 0.0 10271552
17:000ссв12310 0.0 10271334
20:000ююз343867 0.0 1026676
17 апреля, сб
сб1723:00−1ю61044100 0.0 1024541
02:00−1ююз91546100 0.0 1019817
05:00−1юз111748100 0.1 10151125
08:00−1зюз91384100 0.6 1012889
11:000ссз121468100 1.6 10131243
14:00−2ссз13144285 0.0 10171783
17:00−3ссз11133693 0.0 10182002
20:00−5с912420 0.0 10201484
18 апреля, вс
вс1823:00−7с811410 0.0 10201193
02:00−8с811430 0.0 10211086
05:00−9с812494 0.0 10221065
08:00−8с912465 0.0 10231127
11:00−5с101339100 0.0 10241946
14:00−3с101335100 0.0 10252335
17:00−3с91337100 0.0 10262447
20:00−4ссв7104681 0.0 10281465